Location: Cz?stochówka
(50.8142°N, 19.0915°E)
Time: 04:49:42
(UTC+00:00)

IRS-1D - Visible Passes

Search period start: 21 April 2026 00:00
Search period end: 01 May 2026 00:00
Orbit: 736 x 811 km, 98.8° (Epoch: 20 April)

Date Brightness Start Highest point End Pass type
(mag) Time Alt. Az. Time Alt. Az. Time Alt. Az.
22 Apr 6.4 02:43:31 10° NE 02:46:21 15° E 02:49:12 10° ESE visible
25 Apr 6.5 02:39:46 10° ENE 02:42:18 14° E 02:44:52 10° ESE visible
28 Apr 6.6 02:36:04 10° ENE 02:38:15 13° E 02:40:27 10° ESE visible
